Location: Unspecified
(48.2082°N, 0.0000°E)
Time: 06:48:07
(UTC+00:00)

Tiros 1 despin weight - Pass Details

Date: 24 June 2019
Orbit: 594 x 642 km, 48.2° (Epoch: 15 July)

Event Time Altitude Azimuth Distance (km) Brightness Sun altitude
Rises 05:21:21 0° 276° (W) 2,830 ? 10.8°
Reaches altitude 10° 05:25:27 10° 239° (WSW) 1,925 ? 11.4°
Maximum altitude 05:26:31 11° 225° (SW) 1,874 ? 11.6°
Drops below altitude 10° 05:27:34 10° 211° (SSW) 1,924 ? 11.8°
Sets 05:31:40 0° 174° (S) 2,828 ? 12.4°
